Regional Weather Roundup
Issued by NWS Newport/Morehead, NC

Current Version | Previous Version | Text Only | Print | Product List | Glossary On
Versions: 1 2 3 4 5 6 7 8 9 10 11 12 13 14 15 16 17 18 19 20 21 22 23 24 25 26 27 28 29 30 31 32 33 34 35 36 37 38 39 40 41 42 43 44 45 46 47 48 49 50
000
ASUS42 KMHX 221910
RWRMHX
WEATHER ROUNDUP FOR EASTERN NORTH CAROLINA
NATIONAL WEATHER SERVICE NEWPORT/MOREHEAD CITY NC
300 PM EDT TUE JUL 22 2014

NOTE: "FAIR" INDICATES FEW OR NO CLOUDS BELOW 12,000 FEET
WITH NO SIGNIFICANT WEATHER AND/OR OBSTRUCTIONS TO VISIBILITY

NCZ015>017-031-032-045>047-102-103-222000-
NORTH COAST

CITY           SKY/WX    TMP DP  RH WIND       PRES   REMARKS
EDENTON        DRIZZLE   77  75  93 E6        30.12F
ELIZABETH CITY PTSUNNY   84  75  74 E10       30.13F
KITTY HAWK     LGT RAIN  78  74  87 E3        30.12S
MANTEO         NOT AVBL

$$

NCZ045>047-081-094-103-104-222000-
CENTRAL COAST

CITY           SKY/WX    TMP DP  RH WIND       PRES   REMARKS
FRISCO         PTSUNNY   81  74  79 S12       30.13R
SWANQUARTER      N/A     81 N/A N/A S14       30.09S

$$

NCZ095-097-098-100-101-222000-
SOUTHERN COAST

CITY           SKY/WX    TMP DP  RH WIND       PRES   REMARKS
BEAUFORT       CLOUDY    80  75  84 S14       30.12S
CEDAR ISLAND     N/A     81 N/A N/A S9        30.15S
JACKSONVILLE   CLOUDY    78  75  90 SE9       30.10F
NEWPORT        NOT AVBL
PINEY ISLAND   CLOUDY    79  77  94 S8        30.11F
WILMINGTON     PTSUNNY   83  76  79 E8        30.10F


$$

NCZ011>013-027>030-043-044-078>080-089-090>093-098-222000-
COASTAL PLAIN

CITY           SKY/WX    TMP DP  RH WIND       PRES   REMARKS
AHOSKIE        MOSUNNY   84  71  64 NE8       30.11F
CLINTON        SUNNY     87  74  64 CALM      30.09F
ELIZABETHTOWN  MOSUNNY   85  73  67 NW5       30.09F
GOLDSBORO      PTSUNNY   87  77  70 VRB7      30.07F
GREENVILLE     PTSUNNY   84  73  70 E7        30.11S
HAVELOCK       CLOUDY    79  75  87 S6        30.12F
KENANSVILLE    PTSUNNY   80  72  76 N6        30.10F
KINSTON        PTSUNNY   86  73  66 E14G22    30.09F
NEW BERN       LGT RAIN  81  75  82 S9        30.12S
RICHLANDS      CLOUDY    81  73  78 SE9       30.10F
ROANOKE RAPIDS NOT AVBL
ROCKY MOUNT    PTSUNNY   85  75  72 NE9       30.11F
WASHINGTON     CLOUDY    76  74  93 NW3       30.12R
WHITEVILLE     PTSUNNY   84  73  69 CALM      30.09F

$$

AMZ130-135-150-152-154-156-158-170-250-252-270-ANZ085-086-088-633-658-670-222000-
MARINE OBSERVATIONS

STATION/POSITION TIME  TEMP    WIND        PRES    WAVE   SWELL
                       AIR SEA DIR/SP/G            HT/PER HT/PER
                 (UTC) (F)     (DEG/KT/KT) (MB)    (FT/S) (FT/S)
CHESAPEAKE LIGHT NOT AVBL
BUOY 44014       1900   77 78   80/ 14/ 14 1020.3    3/ 8   2/ 8
DUCK             1900   78 76   90/  9/ 11 1019.7
2E DUCK          1900                        N/A     3/ 7
OREGON INLET     1900   80 77  190/ 12/ 13 1020.1
BUOY 44095       1900      79                N/A     3/ 7
20E OREGON INLET NOT AVBL
HATTERAS CG      1900   81 81  180/  6/ 10 1020.6
DIAMOND BUOY     1900          VRB 17/ 19  1019.9    4/ 5   2/14
CAPE LOOKOUT     1800   77     170/ 11/ 12 1019.8
BEAUFORT LAB     1900   78 80  180/  8/  9 1019.6
30 SE NEW RIVER  1900   78 80  160/ 14/ 16 1020.1    3/ 5   2/ 7
5 SE WRIGHTSVILL 1800   76 81  100/  2/  4   N/A
BUOY 41002       1817   82 83  190/ 12/ 14 1021.9    4/ 7   3/ 7
BUOY 41004       1900   79 83  120/  4/  6 1019.4    3/ 8   3/ 8

$$


USA.gov is the U.S. government's official web portal to all federal, state and local government web resources and services.